Skip Page Navigation
NASA JPL Caltech
NASA Logo - Jet Propulsion Laboratory + View the NASA Portal
+ Center for Near-Earth Object Studies
JPL Home Earth Solar System Stars & Galaxies Technology
JPL Solar System Dynamics
BODIES ORBITS EPHEMERIDES TOOLS PHYSICAL DATA DISCOVERY FAQ SITE MAP
JPL Small-Body Database Browser
Search: [ help ]  
382936 (2004 TQ158)
Classification: Main-belt Asteroid          SPK-ID: 2382936
Ephemeris | Orbit Diagram | Orbital Elements | Mission Design | Physical Parameters | Discovery Circumstances ]

[ show orbit diagram ]
Orbital Elements at Epoch 2459000.5 (2020-May-31.0) TDB
Reference: JPL 13 (heliocentric ecliptic J2000)
 Element Value Uncertainty (1-sigma)   Units 
e .08214411171042958 8.4979e-08  
a 2.599178137617024 3.8282e-08 au
q 2.385670958325305 1.9869e-07 au
i 15.51600451897292 5.6314e-06 deg
node 28.86307364822134 2.5565e-05 deg
peri 108.8326834639019 4.5337e-05 deg
M 170.7474295655063 4.2949e-05 deg
tp 2458274.554247216157
(2018-Jun-05.05424722)
0.00017247 TDB
period 1530.567526944361
4.19
3.3814e-05
9.258e-08
d
yr
n .2352068717403846 5.1964e-09 deg/d
Q 2.812685316908743 4.1427e-08 au
  Orbit Determination Parameters
   # obs. used (total)      150  
   data-arc span      6723 days (18.41 yr)  
   first obs. used      2002-04-20  
   last obs. used      2020-09-15  
   planetary ephem.      DE431  
   SB-pert. ephem.      SB431-N16  
   condition code      0  
   norm. resid. RMS      .4694  
   source      ORB  
   producer      Otto Matic  
   solution date      2020-Nov-12 17:39:04  

Additional Information
 Earth MOID = 1.44225 au 
 Jupiter MOID = 2.24454 au 
 T_jup = 3.359 
[ show covariance matrix ]

Ephemeris | Orbit Diagram | Orbital Elements | Mission Design | Physical Parameters | Discovery Circumstances ]

Physical Parameter Table
Parameter Symbol Value Units Sigma Reference Notes
absolute magnitude H 16.8   n/a MPO437567  

382936 (2004 TQ158)          Discovered 2004-Oct-06 by Spacewatch at Kitt Peak
Reference: Last Updated: 2014-01-21

Alternate Designations
 2004 TQ158 = 2010 DV 
Ephemeris | Orbit Diagram | Orbital Elements | Mission Design | Physical Parameters | Discovery Circumstances ]
ABOUT SSD CREDITS/AWARDS PRIVACY/COPYRIGHT GLOSSARY LINKS
FirstGov 2020-Nov-30 00:15 UT
(server date/time)  
NASA Home Page
Site Manager:   Ryan S. Park
Webmaster  Alan B. Chamberlin